ATLAS CENTAUR R/B, 3598

Orbit data source: Space-Track

ATLAS CENTAUR R/B, 3598 is space debris in LEO originally from a launch on Sat, 07 Dec 1968 UTC launched from the Air Force Eastern Test Range (AFETR). Debris objects in space refer to the collection of defunct objects orbiting the Earth. Examples of debris include non-operational satellites, rocket bodies, and fragments generated from explosions, collisions, or faulty payload assembly.

Loading next visibility...
Identifier
3598, 1968-110B
Orbit
LEO
Country
Flag of USUS
Related business
Manufacturer
GD/Convair
Mission
Spacecraft
Bus & Motor
CENTAUR D, Unknown motor
Mass
~1,700 kg wet, ~1,700 kg dry
Launch date (UTC)
1968-12-07 (57 years ago)
Launch vehicle
Unknown
Launch site
Air Force Eastern Test Range (AFETR)
Object type
Payload
Rocket body
Debris
Shape & HBR
Unknown
Radar Cross Section
Large (>1 m²)

Expand to show TLE details & history
Last TLE update: 1 day ago

TLE from 1 day ago
0 ATLAS CENTAUR R/B
1  3598U 68110B   25310.27812693  .00001102  00000-0  24053-3 0  9991
2  3598  34.9930 294.9788 0047384 270.7641  88.7624 14.57341249992099
Epoch: 2025-11-06T06:40Z
TLE epoch observation values (Epoch: 2025-11-06T06:40:30.166Z)
Latitude
-0.00001°
Longitude
149.11435°
Altitude
700.144 km
Speed
7.508 km/s
True Right ascension
19h 39m 54s
True Declination
0° 00' 00"
Sunlit
Object was in daylight at epoch
Visualization orbit readout
Latitude
Unknown
Longitude
Unknown
Altitude
Unknown
Speed
Unknown
Apparent Right ascension
Unknown
Apparent Declination
Unknown
Sunlit
N/A
Visualization observer readout
Local Sidereal Time
03:46:45
Azimuth
Unknown
Elevation
Unknown
Doppler factor
Unknown
Orbital elements
Apogee altitude
738.492 km
Perigee altitude
671.367 km
Semi-major axis
7,083.066 km
Eccentricity
0.00474
Inclination
34.993°
RAAN
294.9788°
Arg. of periapsis
270.7641°
True anomaly
89.30532°
Mean anomaly
88.7624°
Eccentric anomaly
89.03385°
Mean motion
3.64092 °/min
Orbital period
98.88 mins
BSTAR
0.00024053
Loading maneuver chart data...
Computing Atmospheric mass density...
Loading historical data...
Loading historical data...
Loading historical data...
Loading historical data...
Loading historical data...
Loading historical data...
Loading historical data...
Other satellites on launch #110 in the year 1968 (1968-12-07 UTC)

Documentation

Showing up to 5 results
|